PEGASUS DEB

Satellite information

Favourite Embed

Satellite Type and Status

DEBRISIN ORBIT

Key statistics

Satellite PEGASUS DEB at a glance.

Uptime

11532

Days in orbit

Revolutions

≈ 14.9

Per day

Orbit

LEO

Low Earth Orbit

Inclination

81.6

Latest

Satellite identification and parameters

Extended collection of information and parameters for PEGASUS DEB.

Object identification

Identified? True

Debris? True

Object name: PEGASUS DEB

International designator: 1994-029AFV

Object number (NORAD): 39922

Object ID (CCSDS): 39922

Country: UNITED STATES OF AMERICA (US)

Current information (Y/N): Y

RCS size: SMALL

Orbital parameters

Period: 96.641 minutes

Inclination: 81.5856 deg

SMA: 6975.937 km

Apoapsis: 676.813 km

Periapsis: 518.79 km

RAAN: 181.4168 deg

Eccentricy: 0.01132629

Argument of periapsis: 245.8395 deg

Mean anomaly: 113.0946 deg

Mean motion: 14.90043603 rev/day

Mean motion (dot): 0.00016485 rev/day2

B* drag term: 0.0015083344 1/REarth

Two-line elements (TLE)

Creation date: Dec. 5, 2025, 10:48 a.m.

Reference frame: TEME

Reference center: EARTH

Epoch: Dec. 5, 2025, 7:13 a.m. UTC

TLE line 0: 0 PEGASUS DEB

TLE line 1: 1 39922U 94029AFV 25339.30126866 .00016485 00000-0 15083-2 0 9996

TLE line 2: 2 39922 81.5856 181.4168 0113263 245.8395 113.0946 14.90043603615894

Live tracking on map

Real-time ground track for satellite PEGASUS DEB.

In-orbit conjunctions

A list of the most updated potential collisions computed for object PEGASUS DEB.

Target Orbit TCA Probability of collision Miss distance Type
CZ-6 R/B LEO 2025-02-07 21:31:25 0.0001495763 238.0 (m) ROCKET BODY
DELTA 4 DEB SSO 2024-08-04 03:04:10 0.0001308714 366.0 (m) DEBRIS

Associated space launch

PEGASUS DEB was lifted into orbit during the mission ‘Pegasus HAPS | Space Test Experiments Platform 2 (STEP-2)’, on board a Pegasus HAPS space rocket.

The launch took place on May 19, 1994, 5:03 p.m. from Edwards Air Force Base.

For more information about the launch, click the button.

Launch to space Pegasus HAPS | Space Test Experiments Platform 2 (STEP-2)
Pegasus HAPS | Space Test Experiments Platform 2 (STEP-2)

Agency: N/A

Status: Launch Successful

Launch date: May 19, 1994, 5:03 p.m. UTC

Rocket: Pegasus HAPS

Launch pad: Edwards Air Force Base

Location: Air launch to orbit

...

Latest news about this satellite

There are no fresh news available about this satellite. Check back as we update our databases every day.


Newsletter sign-up

Weekly statistics, charts and insights to help you stay on top of the space industry.